Location: Unspecified
(0.0000°N, 0.0000°E)
Time: 00:06:54
(UTC+00:00)

Hubble Space Telescope - Pass Details

Date: 16 February 2020
Orbit: 536 x 540 km, 28.5° (Epoch: 26 February)

Event Time Altitude Azimuth Distance (km) Brightness Sun altitude
Exits shadow 04:21:27 24° 46° (NE) 1,130 2.6 -27.4°
Drops below altitude 10° 04:24:11 10° 86° (E) 1,776 4.3 -26.8°
Sets 04:26:43 0° 99° (E) 2,668 5.7 -26.2°
